User: anonymous   Login
Location: Unspecified
(0.0000°N, 0.0000°E)
Time: 22:53:34
(UTC+00:00)
Language:

CARTOSAT 2B - Orbit

View from above orbital plane
View from above orbital plane
View from above satellite
View from above satellite

Ground track
Ground track

The orbit data is extracted from the following two-line orbital elements,

1 36795U 10035A   18294.67708007  .00000051  00000-0  13962-4 0  9999
2 36795  97.8605 351.2062 0013282 236.9855 123.0080 14.78729645446810
Epoch (UTC): 21 October 2018 16:14:59
Eccentricity: 0.0013282
inclination: 97.8605°
perigee height: 624 km
apogee height: 642 km
right ascension of ascending node: 351.2062°
argument of perigee: 236.9855°
revolutions per day: 14.78729645
mean anomaly at epoch: 123.0080°
orbit number at epoch: 44681

The dashed part of the orbit path shows where the satellite is in the earth's shadow,  

DLR